Reno - Stead, NV

11:11 PM PDT on October 19, 2017 (GMT -0700)
Reno - Stead

Weather History for KRTS - March, 2014

Change the Weather History Date:

Friday, March 28, 2014

  Actual Average (KRNO) Record (KRNO)
Temperature  
Mean Temperature 44 °F -  
Max Temperature 53 °F 58 °F 76 °F (1966)
Min Temperature 35 °F 29 °F 11 °F (1977)
Degree Days  
Heating Degree Days 21    
Moisture  
Dew Point 27 °F    
Average Humidity 52    
Maximum Humidity 70    
Minimum Humidity 33    
Precipitation  
Precipitation 0.00 in - - ()
Sea Level Pressure  
Sea Level Pressure 30.09 in    
Wind  
Wind Speed 11 mph (WSW)    
Max Wind Speed 23 mph    
Max Gust Speed 33 mph    
Visibility 10 miles    
Events      
Averages and records for this station are not official NWS values.
T = Trace of Precipitation, MM = Missing Value Source: NWS Daily Summary

Daily Weather History Graph

Daily Weather History Graph

Search for Another Location

Airport or City:

Trip Planner

Search our weather history database for the weather conditions in past years. The results will help you decide how hot, cold, wet, or windy it might be!

Date:

Astronomy

Mar. 28, 2014 Rise Set
Actual Time 6:49 AM PDT 7:19 PM PDT
Civil Twilight 6:22 AM PDT 7:46 PM PDT
Nautical Twilight 5:51 AM PDT 8:18 PM PDT
Astronomical Twilight 5:18 AM PDT 8:51 PM PDT
Moon 5:23 AM PDT (3/28) 5:22 PM PDT (3/28)
Length of Visible Light 13h 23m
Length of Day
12h 29m
Waning Crescent, 5% of the Moon is Illuminated
Mar 28
Waning Crescent
Mar 30
New
Apr 7
First Quarter
Apr 15
Full
Apr 22
Last Quarter

Hourly Weather History & Observations

Time (PDT) Temp. Windchill Dew Point Humidity Pressure Visibility Wind Dir Wind Speed Gust Speed Precip Events Conditions
12:15 AM 37.4 °F 30.3 °F 26.6 °F 65% 30.07 in 10.0 mi NW 10.4 mph - N/A   Overcast
12:35 AM 37.4 °F 31.4 °F 26.6 °F 65% 30.08 in 10.0 mi West 8.1 mph - N/A   Scattered Clouds
12:55 AM 37.4 °F 29.3 °F 26.6 °F 65% 30.09 in 10.0 mi WNW 12.7 mph 18.4 mph N/A   Partly Cloudy
1:15 AM 37.4 °F 30.8 °F 26.6 °F 65% 30.09 in 10.0 mi WNW 9.2 mph - N/A   Mostly Cloudy
1:35 AM 37.4 °F 30.8 °F 28.4 °F 70% 30.10 in 10.0 mi WNW 9.2 mph - N/A   Mostly Cloudy
1:55 AM 37.4 °F 31.4 °F 26.6 °F 65% 30.10 in 10.0 mi NW 8.1 mph - N/A   Mostly Cloudy
2:15 AM 35.6 °F 29.2 °F 26.6 °F 70% 30.09 in 10.0 mi NNW 8.1 mph - N/A   Partly Cloudy
2:35 AM 35.6 °F 28.0 °F 26.6 °F 70% 30.08 in 10.0 mi North 10.4 mph - N/A   Clear
2:55 AM 35.6 °F 28.6 °F 26.6 °F 70% 30.07 in 10.0 mi North 9.2 mph - N/A   Clear
3:15 AM 35.6 °F 29.9 °F 26.6 °F 70% 30.07 in 10.0 mi NNW 6.9 mph - N/A   Clear
3:35 AM 35.6 °F 31.7 °F 26.6 °F 70% 30.07 in 10.0 mi WSW 4.6 mph - N/A   Mostly Cloudy
3:55 AM 37.4 °F 32.1 °F 26.6 °F 65% 30.07 in 10.0 mi South 6.9 mph - N/A   Scattered Clouds
4:15 AM 35.6 °F 32.8 °F 26.6 °F 70% 30.07 in 10.0 mi SSW 3.5 mph - N/A   Partly Cloudy
4:35 AM 35.6 °F - 26.6 °F 70% 30.07 in 10.0 mi Calm Calm - N/A   Partly Cloudy
4:55 AM 35.6 °F 31.7 °F 26.6 °F 70% 30.07 in 10.0 mi NNE 4.6 mph - N/A   Scattered Clouds
5:15 AM 37.4 °F 34.9 °F 26.6 °F 65% 30.06 in 10.0 mi North 3.5 mph - N/A   Mostly Cloudy
5:35 AM 37.4 °F 31.4 °F 26.6 °F 65% 30.07 in 10.0 mi West 8.1 mph - N/A   Overcast
5:55 AM 39.2 °F 30.2 °F 26.6 °F 61% 30.08 in 10.0 mi West 17.3 mph 20.7 mph N/A   Scattered Clouds
6:15 AM 41.0 °F 32.8 °F 26.6 °F 57% 30.09 in 10.0 mi WSW 16.1 mph - N/A   Mostly Cloudy
6:35 AM 41.0 °F 33.9 °F 26.6 °F 57% 30.09 in 10.0 mi SW 12.7 mph - N/A   Mostly Cloudy
6:55 AM 39.2 °F 30.8 °F 28.4 °F 65% 30.09 in 10.0 mi West 15.0 mph - N/A   Mostly Cloudy
7:15 AM 39.2 °F 33.0 °F 28.4 °F 65% 30.10 in 10.0 mi West 9.2 mph 18.4 mph N/A   Partly Cloudy
7:35 AM 39.2 °F 33.0 °F 28.4 °F 65% 30.11 in 10.0 mi West 9.2 mph - N/A   Mostly Cloudy
7:55 AM 41.0 °F 34.3 °F 28.4 °F 61% 30.11 in 10.0 mi West 11.5 mph 16.1 mph N/A   Scattered Clouds
8:15 AM 41.0 °F 37.1 °F 28.4 °F 61% 30.11 in 10.0 mi WNW 5.8 mph - N/A   Clear
8:35 AM 41.0 °F 36.4 °F 28.4 °F 61% 30.12 in 10.0 mi West 6.9 mph - N/A   Clear
8:55 AM 41.0 °F 38.0 °F 28.4 °F 61% 30.12 in 10.0 mi WSW 4.6 mph - N/A   Clear
9:15 AM 44.6 °F 42.2 °F 26.6 °F 49% 30.12 in 10.0 mi SE 4.6 mph - N/A   Clear
9:35 AM 44.6 °F 40.2 °F 26.6 °F 49% 30.12 in 10.0 mi SSW 8.1 mph - N/A   Clear
9:55 AM 44.6 °F 41.4 °F 24.8 °F 46% 30.13 in 10.0 mi SSW 5.8 mph - N/A   Clear
10:15 AM 46.4 °F 40.4 °F 24.8 °F 43% 30.13 in 10.0 mi South 13.8 mph 20.7 mph N/A   Clear
10:35 AM 46.4 °F 44.3 °F 24.8 °F 43% 30.13 in 10.0 mi South 4.6 mph 20.7 mph N/A   Clear
10:55 AM 46.4 °F 43.5 °F 23.0 °F 40% 30.14 in 10.0 mi NNW 5.8 mph - N/A   Clear
11:15 AM 46.4 °F 42.9 °F 24.8 °F 43% 30.14 in 10.0 mi WSW 6.9 mph 17.3 mph N/A   Partly Cloudy
11:35 AM 46.4 °F 40.4 °F 24.8 °F 43% 30.14 in 10.0 mi SSW 13.8 mph 20.7 mph N/A   Mostly Cloudy
11:55 AM 48.2 °F - 24.8 °F 40% 30.14 in 10.0 mi WSW 10.4 mph - N/A   Overcast
12:15 PM 50.0 °F - 23.0 °F 35% 30.13 in 10.0 mi WSW 13.8 mph - N/A   Scattered Clouds
12:35 PM 50.0 °F - 24.8 °F 37% 30.12 in 10.0 mi WSW 12.7 mph 17.3 mph N/A   Clear
12:55 PM 53.6 °F - 24.8 °F 33% 30.12 in 10.0 mi SW 18.4 mph 21.9 mph N/A   Clear
1:15 PM 50.0 °F - 24.8 °F 37% 30.12 in 10.0 mi SW 10.4 mph - N/A   Scattered Clouds
1:35 PM 50.0 °F - 26.6 °F 40% 30.12 in 10.0 mi SW 17.3 mph 24.2 mph N/A   Overcast
1:55 PM 51.8 °F - 26.6 °F 38% 30.12 in 10.0 mi SW 11.5 mph 20.7 mph N/A   Mostly Cloudy
2:15 PM 51.8 °F - 26.6 °F 38% 30.11 in 10.0 mi SW 15.0 mph 21.9 mph N/A   Mostly Cloudy
2:35 PM 53.6 °F - 26.6 °F 35% 30.11 in 10.0 mi WSW 11.5 mph 24.2 mph N/A   Mostly Cloudy
2:55 PM 53.6 °F - 28.4 °F 38% 30.10 in 10.0 mi WSW 18.4 mph 26.5 mph N/A   Mostly Cloudy
3:15 PM 51.8 °F - 26.6 °F 38% 30.10 in 10.0 mi SW 11.5 mph 26.5 mph N/A   Mostly Cloudy
3:35 PM 51.8 °F - 28.4 °F 41% 30.09 in 10.0 mi SW 11.5 mph 25.3 mph N/A   Overcast
3:55 PM 51.8 °F - 28.4 °F 41% 30.09 in 10.0 mi WSW 18.4 mph 29.9 mph N/A   Overcast
4:15 PM 53.6 °F - 28.4 °F 38% 30.09 in 10.0 mi SSW 15.0 mph 21.9 mph N/A   Overcast
4:35 PM 53.6 °F - 28.4 °F 38% 30.08 in 10.0 mi SW 15.0 mph 21.9 mph N/A   Overcast
4:55 PM 53.6 °F - 28.4 °F 38% 30.07 in 10.0 mi SW 18.4 mph 24.2 mph N/A   Mostly Cloudy
5:15 PM 51.8 °F - 28.4 °F 41% 30.08 in 10.0 mi SSW 12.7 mph 19.6 mph N/A   Scattered Clouds
5:35 PM 50.0 °F - 30.2 °F 47% 30.07 in 10.0 mi SW 20.7 mph 25.3 mph N/A   Partly Cloudy
5:55 PM 48.2 °F - 30.2 °F 50% 30.06 in 10.0 mi SW 16.1 mph 28.8 mph N/A   Partly Cloudy
6:15 PM 48.2 °F - 28.4 °F 46% 30.06 in 10.0 mi SW 18.4 mph 23.0 mph N/A   Partly Cloudy
6:35 PM 48.2 °F - 30.2 °F 50% 30.06 in 10.0 mi West 13.8 mph 20.7 mph N/A   Scattered Clouds
6:55 PM 48.2 °F - 30.2 °F 50% 30.06 in 10.0 mi SW 19.6 mph 26.5 mph N/A   Mostly Cloudy
7:15 PM 48.2 °F - 30.2 °F 50% 30.06 in 10.0 mi SW 15.0 mph 28.8 mph N/A   Mostly Cloudy
7:35 PM 46.4 °F 38.7 °F 28.4 °F 50% 30.06 in 10.0 mi WSW 20.7 mph 28.8 mph N/A   Mostly Cloudy
7:55 PM 46.4 °F 40.1 °F 30.2 °F 53% 30.06 in 10.0 mi WSW 15.0 mph 25.3 mph N/A   Mostly Cloudy
8:15 PM 46.4 °F 40.1 °F 28.4 °F 50% 30.07 in 10.0 mi SW 15.0 mph 25.3 mph N/A   Overcast
8:35 PM 46.4 °F 39.8 °F 28.4 °F 50% 30.07 in 10.0 mi WSW 16.1 mph 26.5 mph N/A   Overcast
8:55 PM 46.4 °F 38.7 °F 28.4 °F 50% 30.08 in 10.0 mi West 20.7 mph 26.5 mph N/A   Overcast
9:15 PM 46.4 °F 41.1 °F 28.4 °F 50% 30.08 in 10.0 mi SW 11.5 mph - N/A   Overcast
9:35 PM 46.4 °F 41.5 °F 28.4 °F 50% 30.08 in 10.0 mi WSW 10.4 mph 16.1 mph N/A   Overcast
9:55 PM 46.4 °F 42.9 °F 28.4 °F 50% 30.07 in 10.0 mi WSW 6.9 mph - N/A   Overcast
10:15 PM 46.4 °F 40.7 °F 28.4 °F 50% 30.06 in 10.0 mi SW 12.7 mph 17.3 mph N/A   Mostly Cloudy
10:35 PM 46.4 °F 39.8 °F 28.4 °F 50% 30.06 in 10.0 mi SW 16.1 mph 20.7 mph N/A   Partly Cloudy
10:55 PM 46.4 °F 39.0 °F 28.4 °F 50% 30.05 in 10.0 mi WSW 19.6 mph 26.5 mph N/A   Clear
11:15 PM 46.4 °F 38.3 °F 28.4 °F 50% 30.04 in 10.0 mi SW 23.0 mph - N/A   Clear
11:35 PM 46.4 °F 38.5 °F 28.4 °F 50% 30.03 in 10.0 mi SW 21.9 mph 27.6 mph N/A   Partly Cloudy
11:55 PM 46.4 °F 39.8 °F 28.4 °F 50% 30.04 in 10.0 mi SW 16.1 mph 33.4 mph N/A   Mostly Cloudy